Regional Weather Roundup
Issued by NWS

Home | Current Version | Previous Version | Text Only | Print | Product List | Glossary On
Versions: 1 2 3 4 5 6 7 8 9 10 11 12 13 14 15 16 17 18 19 20 21 22 23 24 25 26 27 28 29 30 31 32 33 34 35 36 37 38 39 40 41 42 43 44 45 46 47 48 49 50
000
ASUS42 KTBW 030210
RWRFL
FLORIDA REGIONAL WEATHER ROUNDUP
NATIONAL WEATHER SERVICE TAMPA BAY RUSKIN FL
1000 PM EDT TUE SEP 02 2014

NOTE: "FAIR" INDICATES FEW OR NO CLOUDS BELOW 12,000 FEET WITH NO
SIGNIFICANT WEATHER AND/OR OBSTRUCTIONS TO VISIBILITY.


FLZ001>010-012>015-112-114-115-030300-
PANHANDLE FLORIDA

CITY           SKY/WX    TMP DP  RH WIND       PRES   REMARKS
PENSACOLA      MOCLDY    81  73  76 W7        30.03R
PENSACOLA NAS  MOCLDY    81  74  79 W3        30.03R
MILTON NAS     MOCLDY    77  73  87 NW3       30.04R
CRESTVIEW      PTCLDY    81  74  79 SW5       30.04R
DUKE FIELD     MOCLDY    80  76  86 W2        30.04R
VALPARAISO     MOCLDY    83  74  76 W1        30.03R
MARY ESTHER    PTCLDY    82  70  67 NW1       30.02R
TRI COUNTY     FAIR      80  75  84 CALM      30.03R
PANAMA CITY    FAIR      82  75  79 CALM      30.02R
TYNDALL AFB    CLEAR     83  75  77 W5        30.03R
APALACHICOLA   PTCLDY    80  74  81 CALM      30.02R

STATION/POSITION SKY/WX   TEMP    WIND        PRES    WAVE   SWELL
                          AIR SEA DIR/SP/G            HT/PER HT/PER
                          (F)     (DEG/KT/KT) (MB)    (FT/S) (FT/S)
30.1N   87.6W              85 86  210/  6/  8 1016.7R   2/ 7   2/ 7
28.8N   86.0W              84 87  190/  2/  4 1016.5    2/ 7   2/ 7
PANAMA CITY BEAC           85 88  250/  9/ 10 1016.7R
CAPE SAN BLAS    NOT AVBL
TOWER C                    84     190/  2/  3 1016.8R
28.5N   84.5W              85 87  100/  4/  4 1016.4R   2/ 7   2/ 7

$$
FLZ011-016>038-118-127-128-134-139-239-030300-
NORTH FLORIDA

CITY           SKY/WX    TMP DP  RH WIND       PRES   REMARKS
MARIANNA       CLEAR     83  77  82 SW5       30.02R
TALLAHASSEE    TSTM      73  72  94 E24G35    30.07R VSB 1
PERRY          CLOUDY    73  72  94 E3        30.06R
CROSS CITY       N/A     77  73  87 CALM      30.03R
LAKE CITY      DRIZZLE   72  72 100 CALM      30.05R
GAINESVILLE    CLOUDY    75  73  93 CALM      30.03F
MAYPORT NAS    CLOUDY    82  75  79 S7        30.04R
JACKSONVILLE   CLOUDY    74  73  97 CALM      30.04R
JAX NAS        CLOUDY    85  75  72 SE5       30.04R
JAX CRAIG      CLOUDY    79  75  87 CALM      30.04R
JAX CECIL      CLOUDY    73  73 100 CALM      30.05R
FERNANDINA BEA FAIR      82  73  74 S6        30.03R
ST AUGUSTINE   MOCLDY    82  74  76 SE8       30.04S

STATION/POSITION SKY/WX   TEMP    WIND        PRES    WAVE   SWELL
                          AIR SEA DIR/SP/G            HT/PER HT/PER
                          (F)     (DEG/KT/KT) (MB)    (FT/S) (FT/S)
SHELL POINT                86     250/  8/ 10   N/A
KEATON BEACH               77      60/  5/  6 1017.6R
CEDAR KEY                  83      10/  3/  4 1016.5R
FERNANDINA                 82 88  170/  4/  5 1016.4R
30.7N   81.3W                 85                N/A     2/13   2/13
MAYPORT                    82 86  170/  3/  5   N/A
31.4N   80.9W              84 85  180/ 10/ 12 1017.2R   2/11   2/11
ST AUGUSTINE               83     160/ 13/ 15 1017.7S

$$
FLZ040-043>046-052-053-057-058-063-144-030300-
INTERIOR CENTRAL FLORIDA

CITY           SKY/WX    TMP DP  RH WIND       PRES   REMARKS
OCALA          CLOUDY    82  70  65 CALM      30.04R
LEESBURG       PTCLDY    83  72  69 SE10      30.04S
SANFORD        MOCLDY    80  72  76 SE6       30.03S
ORLANDO EXEC   MOCLDY    81  72  74 SE7       30.04R
ORLANDO INTL   MOCLDY    81  73  76 SE6       30.04R
KISSIMMEE      CLEAR     82  73  74 SE7       30.04R
WINTER HAVEN   PTCLDY    82  71  69 E7        30.04R
LAKELAND       PTCLDY    81  72  74 SE6       30.03R
BARTOW         FAIR      79  72  78 SE3       30.05R
OKEECHOBEE       N/A     77  72  83 MISG      30.03F

$$
FLZ041-047-054-059-064-141-147-030300-
EAST CENTRAL FLORIDA

CITY           SKY/WX    TMP DP  RH WIND       PRES   REMARKS
DAYTONA BEACH  MOCLDY    81  73  76 CALM      30.04S
DELAND         MOCLDY    79  73  83 E5        30.04F
NEW SMYRNA BEA PTCLDY    82  73  74 SE8       30.04
JFK SPACE CTR  PTCLDY    80  73  79 S5        30.03S
CAPE CANAVERAL PTCLDY    81  73  77 SE7       30.03R
PATRICK AFB    PTCLDY    83  74  74 SE10      30.03S
MELBOURNE      CLEAR     83  72  69 SE9       30.03S
VERO BEACH     PTCLDY    81  72  74 SE7       30.03S
FT PIERCE      CLEAR     83  70  64 SE6       30.03R
STUART         CLEAR     79  70  73 SE5       30.04S

STATION/POSITION SKY/WX   TEMP    WIND        PRES    WAVE   SWELL
                          AIR SEA DIR/SP/G            HT/PER HT/PER
                          (F)     (DEG/KT/KT) (MB)    (FT/S) (FT/S)
28.5N   80.2W              84 87  130/ 10/ 12 1017.2R
28.9N   78.5W              82 85  140/ 10/ 12 1017.6S   4/10   3/10
TRIDENT PIER               82 87  130/  6/  9 1016.6R
28.4N   80.5W                 83                N/A     2/11
27.6N   80.2W                 86                N/A     3/10   2/12

$$
FLZ050-056-061-142-242-148-248-149-249-151-251-155-255-
160-260-030300-
WEST CENTRAL FLORIDA

CITY           SKY/WX    TMP DP  RH WIND       PRES   REMARKS
CRYSTAL RIVER  MOCLDY    81  75  83 E7        30.02R
INVERNESS      FAIR      81  72  74 CALM      30.03S
BROOKSVILLE    CLOUDY    81  76  84 E5        30.03S
ZEPHYRHILLS    FAIR      79  72  78 E3        30.03S
CLEARWATER     MOCLDY    84  76  76 NE9       30.01S
TAMPA INTL     MOCLDY    83  72  69 S5        30.02R
TAMPA EXEC     MOCLDY    84  72  65 CALM      30.02S
PLANT CITY     MOCLDY    82  73  74 SE3       30.04S
MACDILL AFB    MOCLDY    82  76  81 S9        30.02R
ST PETERSBURG  MOCLDY    83  73  72 SW3       30.00R THUNDER
SARASOTA       MOCLDY    82  72  71 CALM      30.00S
VENICE           N/A    N/A N/A N/A MISG        N/A

STATION/POSITION SKY/WX   TEMP    WIND        PRES    WAVE   SWELL
                          AIR SEA DIR/SP/G            HT/PER HT/PER
                          (F)     (DEG/KT/KT) (MB)    (FT/S) (FT/S)
CEDAR KEY                  83      10/  3/  4 1016.5R
28.5N   84.5W              85 87  100/  4/  4 1016.4R   2/ 7   2/ 7
27.3N   84.3W                 87                N/A     2/ 7
CLEARWATER BEACH           84 88   50/  5/  6 1015.8F
MIDDLE TAMPA BAY           82     110/  5/  5 1016.6S
VENICE                     78 88   90/  4/  5 1016.1F

$$
FLZ066-069-070-075>078-162-262-165-265-030300-
SOUTHWEST FLORIDA AND KEYS

CITY           SKY/WX    TMP DP  RH WIND       PRES   REMARKS
PUNTA GORDA    PTCLDY    76  74  93 CALM      30.04R
FT MYERS       PTCLDY    76  74  93 SE3       30.03R
SOUTHWEST INTL CLEAR     75  71  87 E5        30.03R
NAPLES         CLEAR     76  71  85 SE6       30.02R
MARCO ISLAND   CLOUDY    73  72  94 E3        30.02R
MARATHON       CLOUDY    83  75  77 E8        30.00S
KEY WEST NAS   PTCLDY    83  73  72 E13       29.99S
KEY WEST INTL  PTCLDY    84  73  69 E14       30.00R

STATION/POSITION SKY/WX   TEMP    WIND        PRES    WAVE   SWELL
                          AIR SEA DIR/SP/G            HT/PER HT/PER
                          (F)     (DEG/KT/KT) (MB)    (FT/S) (FT/S)
VENICE                     78 88   90/  4/  5 1016.1F
NAPLES                     76     120/  5/  8 1016.8S
DRY TORTUGAS               85      90/ 12/ 13 1015.6R
NW FL BAY                  81      80/ 12/ 14 1016.4R
SAND KEY                   84     100/ 15/ 18 1015.5R
SOMBRERO KEY               83     110/ 17/ 19 1016.6F
LONG KEY                   81 87   40/  8/  9 1017.2R
MOLASSES REEF              82 87  130/ 11/ 13 1016.7R

$$
FLZ067-068-071>074-168-172>174-030300-
SOUTHEAST FLORIDA

CITY           SKY/WX    TMP DP  RH WIND       PRES   REMARKS
W PALM BEACH   PTCLDY    83  72  69 SE10      30.02S
FT LAUDER-EXEC PTCLDY    77  75  93 W6        30.03R
FT LAUDERDALE  MOCLDY    79  72  79 W6        30.03R
POMPANO BEACH  PTCLDY    81  68  64 E5        30.04R
PEMBROKE PINES PTCLDY    77  74  90 CALM      30.04F
OPA LOCKA      PTCLDY    77  72  84 N6        30.03F
MIAMI          PTCLDY    77  74  90 N6        30.03S
WEST KENDALL   PTCLDY    79  73  82 NE3       30.02F
HOMESTEAD      PTCLDY    78  72  83 N2        30.03R

STATION/POSITION SKY/WX   TEMP    WIND        PRES    WAVE   SWELL
                          AIR SEA DIR/SP/G            HT/PER HT/PER
                          (F)     (DEG/KT/KT) (MB)    (FT/S) (FT/S)
PORT EVERGLADES            83     120/  5/ 10 1016.8
VIRGINIA KEY               83 87  110/  7/  8   N/A
LAKE WORTH                 83 87  130/ 11/ 13 1016.6S
FOWEY ROCKS                81 87  110/ 12/ 13 1017.4R
SETTLEMENT POINT           81     130/  7/  9 1018.0R

$$



USA.gov is the U.S. government's official web portal to all federal, state and local government web resources and services.